Regional Weather Roundup
Issued by NWS

Home | Current Version | Previous Version | Graphics & Text | Print | Product List | Glossary On
Versions: 1 2 3 4 5 6 7 8 9 10 11 12 13 14 15 16 17 18 19 20 21 22 23 24 25 26 27 28 29 30 31 32 33 34 35 36 37 38 39 40 41 42 43 44 45 46 47 48 49 50
000
ASUS43 KOAX 251202
RWRNE

WEATHER ROUNDUP FOR NEBRASKA
NATIONAL WEATHER SERVICE OMAHA NE
700 AM CDT SAT OCT 25 2014

NOTES: SATELLITE DATA IS BEING USED TO AUGMENT CLOUD COVER ABOVE
       12000 FEET.
       "FAIR" INDICATES FEW OR NO CLOUDS BELOW 12,000 FEET WITH NO
       SIGNIFICANT WEATHER AND/OR OBSTRUCTIONS TO VISIBILITY.

  * THESE STATIONS DO NOT REPORT WEATHER SUCH AS RAIN...SNOW OR FOG.

NEZ001>004-019>022-054>056-251300-
NEBRASKA PANHANDLE

CITY           SKY/WX    TMP DP  RH WIND       PRES   REMARKS
SCOTTSBLUFF    CLEAR     39  32  76 CALM      30.16S
6HR MIN TEMP:  36; 6HR MAX TEMP:  53;

ALLIANCE       CLEAR     35  32  88 N5        30.15S WCI  31
6HR MIN TEMP:  31; 6HR MAX TEMP:  38;

CHADRON        CLEAR     32  30  92 SW3       30.17S
6HR MIN TEMP:  31; 6HR MAX TEMP:  38;

KIMBALL        CLEAR     40  29  65 W8        30.16S WCI  35
SIDNEY         CLEAR     39  30  70 W6        30.15R WCI  35
6HR MIN TEMP:  38; 6HR MAX TEMP:  49;

$$

NEZ057>060-069>072-079>082-251300-
SOUTHWEST NEBRASKA

CITY           SKY/WX    TMP DP  RH WIND       PRES   REMARKS
NORTH PLATTE   CLEAR     34  31  88 NW6       30.11R WCI  29
6HR MIN TEMP:  34; 6HR MAX TEMP:  43;

IMPERIAL       CLEAR     45  32  60 NW6       30.10S
6HR MIN TEMP:  39; 6HR MAX TEMP:  55;

LEXINGTON      CLEAR     39  37  93 W6        30.09R WCI  35
MCCOOK         CLEAR     40  34  79 SW7       30.09R
6HR MIN TEMP:  39; 6HR MAX TEMP:  49;

OGALLALA       CLEAR     38  34  85 SW3       30.11R
$$

NEZ005>010-023>029-035>040-094-251300-
NORTH CENTRAL NEBRASKA

CITY           SKY/WX    TMP DP  RH WIND       PRES   REMARKS
VALENTINE      CLEAR     41  33  73 N5        30.14R
6HR MIN TEMP:  40; 6HR MAX TEMP:  53;

AINSWORTH      CLEAR     40  34  76 CALM      30.12F
BROKEN BOW     CLEAR     47  41  80 N10       30.11R
6HR MIN TEMP:  41; 6HR MAX TEMP:  48;

O`NEILL        CLEAR     43  38  82 N7        30.13S
ORD            CLEAR     46  38  73 N5        30.10R
6HR MIN TEMP:  37; 6HR MAX TEMP:  46;

THEDFORD       CLEAR     40  35  83 CALM      30.13R
$$

NEZ041-046>049-061>064-073>077-083>087-251300-
SOUTH CENTRAL NEBRASKA

CITY           SKY/WX    TMP DP  RH WIND       PRES   REMARKS
GRAND ISLAND   CLEAR     42  39  89 SW5       30.09R
6HR MIN TEMP:  42; 6HR MAX TEMP:  50;

AURORA         CLEAR     42  39  87 CALM      30.08S
HASTINGS       CLEAR     44  40  85 N6        30.08R
6HR MIN TEMP:  42; 6HR MAX TEMP:  51;

HEBRON         CLEAR     43  41  93 CALM      30.06R
HOLDREGE       CLEAR     41  39  92 CALM      30.07S
KEARNEY *      CLEAR     45  39  81 NW7       30.09R
YORK           CLEAR     46  43  87 N3        30.08R FOG
$$

NEZ011>018-030>034-042>045-251300-
NORTHEAST NEBRASKA

CITY           SKY/WX    TMP DP  RH WIND       PRES   REMARKS
NORFOLK        CLEAR     45  40  82 W5        30.10R
6HR MIN TEMP:  42; 6HR MAX TEMP:  46;

ALBION         CLEAR     41  37  84 NW5       30.10R
BLAIR          CLEAR     54  45  70 N10       30.06R
COLUMBUS *     CLEAR     45  37  76 N8        30.09R
FREMONT        CLEAR     44  42  93 W5        30.07R
TEKAMAH        CLEAR     44  41  89 N5        30.08R
6HR MIN TEMP:  44; 6HR MAX TEMP:  50;

WAYNE          CLEAR     41  39  91 CALM      30.11R
$$

NEZ050>053-065>068-078-088>093-251300-
SOUTHEAST NEBRASKA

CITY           SKY/WX    TMP DP  RH WIND       PRES   REMARKS
LINCOLN        CLEAR     44  41  89 CALM      30.08R
6HR MIN TEMP:  43; 6HR MAX TEMP:  52;

OMAHA EPPLEY   CLEAR     49  46  90 N9        30.06R
6HR MIN TEMP:  45; 6HR MAX TEMP:  52;

BEATRICE       CLEAR     43  43  99 CALM      30.06R
FALLS CITY     FOG       47  46  97 NW5       30.05R VSB 1/4
6HR MIN TEMP:  47; 6HR MAX TEMP:  57;

NEBRASKA CITY  CLEAR     51  47  86 CALM      30.06S
PLATTSMOUTH    CLEAR     50  46  85 CALM      30.06R
$$

NEZ044-045-051>053-067-251300-
OMAHA AREA

CITY           SKY/WX    TMP DP  RH WIND       PRES   REMARKS
OMAHA EPPLEY   CLEAR     49  46  90 N9        30.06R
6HR MIN TEMP:  45; 6HR MAX TEMP:  52;

BLAIR          CLEAR     54  45  70 N10       30.06R
FREMONT        CLEAR     44  42  93 W5        30.07R
OFFUTT AFB     CLEAR     46  46 100 CALM      30.05R FOG
PLATTSMOUTH    CLEAR     50  46  85 CALM      30.06R
WAHOO          FAIR      46  43  88 N7        30.07R
$$



USA.gov is the U.S. government's official web portal to all federal, state and local government web resources and services.